| time (UTC) | temp F | wind direction | speed knots | gust knots | rain 1hr in | rain 24hr in | rain mn in | humidity % | barometer mb |
| 20260506213016 | 58 | 125 | 0.9 | 5.2 | 0.01 | 0.12 | 0.12 | 93 | 1006.1 |
| 20260506211528 | 59 | 127 | 0.9 | 7.0 | 0.02 | 0.12 | 0.12 | 93 | 1006.1 |
| 20260506210006 | 59 | 229 | 0.9 | 6.1 | 0.03 | 0.12 | 0.12 | 93 | 1006.2 |
| 20260506204515 | 59 | 113 | 2.6 | 5.2 | 0.04 | 0.12 | 0.12 | 92 | 1006.2 |
| 20260506203014 | 59 | 139 | 1.7 | 4.3 | 0.03 | 0.11 | 0.11 | 92 | 1006.3 |
| 20260506201518 | 59 | 105 | 0.0 | 6.1 | 0.03 | 0.10 | 0.10 | 92 | 1006.5 |
| 20260506200019 | 59 | 146 | 0.9 | 8.7 | 0.03 | 0.09 | 0.09 | 92 | 1006.6 |
| 20260506194506 | 59 | 220 | 2.6 | 8.7 | 0.03 | 0.08 | 0.08 | 92 | 1007.1 |
| 20260506191513 | 60 | 226 | 0.9 | 4.3 | 0.03 | 0.07 | 0.07 | 91 | 1007.1 |
| 20260506190020 | 60 | 236 | 2.6 | 7.0 | 0.02 | 0.06 | 0.06 | 89 | 1007.4 |
| 20260506184525 | 60 | 18 | 3.5 | 7.8 | 0.02 | 0.05 | 0.05 | 89 | 1007.3 |
| 20260506183005 | 61 | 167 | 1.7 | 4.3 | 0.04 | 0.05 | 0.05 | 88 | 1007.4 |
| 20260506181528 | 61 | 152 | 2.6 | 7.0 | 0.04 | 0.04 | 0.04 | 87 | 1007.4 |
| 20260506180016 | 62 | 159 | 1.7 | 4.3 | 0.04 | 0.04 | 0.04 | 86 | 1007.1 |
| 20260506174524 | 63 | 154 | 0.9 | 3.5 | 0.03 | 0.03 | 0.03 | 85 | 1007.6 |
| 20260506173042 | 64 | 240 | 0.9 | 7.0 | 0.01 | 0.01 | 0.01 | 80 | 1007.8 |
| 20260506171514 | 65 | 235 | 0.9 | 9.6 | 0.00 | 0.00 | 0.00 | 76 | 1008.3 |
| 20260506170038 | 66 | 122 | 0.9 | 8.7 | 0.00 | 0.00 | 0.00 | 73 | 1008.2 |
| 20260506164517 | 67 | 143 | 3.5 | 7.8 | 0.00 | 0.00 | 0.00 | 70 | 1007.9 |
| 20260506163028 | 67 | 76 | 1.7 | 5.2 | 0.00 | 0.00 | 0.00 | 69 | 1008.0 |
| 20260506161524 | 67 | 164 | 1.7 | 7.8 | 0.00 | 0.00 | 0.00 | 70 | 1008.3 |
| 20260506160010 | 66 | 121 | 0.9 | 2.6 | 0.00 | 0.00 | 0.00 | 72 | 1008.5 |
| 20260506154513 | 65 | 231 | 1.7 | 5.2 | 0.00 | 0.00 | 0.00 | 73 | 1009.0 |
| 20260506153023 | 65 | 268 | 1.7 | 8.7 | 0.00 | 0.00 | 0.00 | 74 | 1009.2 |
| 20260506151521 | 65 | 183 | 1.7 | 7.0 | 0.00 | 0.00 | 0.00 | 74 | 1009.3 |
| 20260506150026 | 64 | 146 | 2.6 | 7.8 | 0.00 | 0.00 | 0.00 | 74 | 1009.4 |
| 20260506144509 | 64 | 195 | 0.9 | 10.4 | 0.00 | 0.00 | 0.00 | 76 | 1009.4 |
| 20260506143023 | 64 | 125 | 0.9 | 10.4 | 0.00 | 0.00 | 0.00 | 76 | 1009.6 |
| 20260506141519 | 64 | 155 | 2.6 | 7.0 | 0.00 | 0.00 | 0.00 | 75 | 1009.4 |
| 20260506140023 | 64 | 253 | 1.7 | 9.6 | 0.00 | 0.00 | 0.00 | 76 | 1009.5 |
| 20260506134525 | 63 | 198 | 1.7 | 6.1 | 0.00 | 0.00 | 0.00 | 76 | 1009.2 |
| 20260506133025 | 63 | 95 | 1.7 | 6.1 | 0.00 | 0.00 | 0.00 | 77 | 1009.4 |
| 20260506131516 | 62 | 183 | 1.7 | 5.2 | 0.00 | 0.00 | 0.00 | 78 | 1009.4 |
| 20260506130004 | 62 | 122 | 1.7 | 4.3 | 0.00 | 0.00 | 0.00 | 78 | 1009.5 |
| 20260506124505 | 61 | 113 | 1.7 | 3.5 | 0.00 | 0.00 | 0.00 | 79 | 1009.6 |
| 20260506123010 | 61 | 308 | 0.9 | 4.3 | 0.00 | 0.00 | 0.00 | 80 | 1009.7 |
| 20260506121515 | 60 | 212 | 1.7 | 7.0 | 0.00 | 0.00 | 0.00 | 81 | 1009.7 |
| 20260506120018 | 60 | 223 | 0.0 | 7.0 | 0.00 | 0.00 | 0.00 | 81 | 1010.0 |
| 20260506114503 | 60 | 122 | 1.7 | 3.5 | 0.00 | 0.00 | 0.00 | 81 | 1009.9 |
| 20260506113028 | 59 | 202 | 0.9 | 7.0 | 0.00 | 0.00 | 0.00 | 82 | 1009.9 |
| 20260506111511 | 59 | 181 | 0.9 | 6.1 | 0.00 | 0.00 | 0.00 | 82 | 1009.7 |
| 20260506110018 | 58 | 205 | 2.6 | 5.2 | 0.00 | 0.00 | 0.00 | 83 | 1010.2 |
| 20260506104540 | 58 | 236 | 1.7 | 4.3 | 0.00 | 0.00 | 0.00 | 83 | 1010.2 |
| 20260506103007 | 58 | 244 | 0.9 | 3.5 | 0.00 | 0.00 | 0.00 | 83 | 1010.2 |
| 20260506101510 | 58 | 120 | 0.9 | 4.3 | 0.00 | 0.00 | 0.00 | 84 | 1009.8 |
| 20260506100014 | 57 | 214 | 0.0 | 3.5 | 0.00 | 0.00 | 0.00 | 84 | 1009.9 |
| 20260506094518 | 57 | 110 | 0.9 | 4.3 | 0.00 | 0.00 | 0.00 | 84 | 1009.8 |
| 20260506093020 | 57 | 138 | 0.9 | 3.5 | 0.00 | 0.00 | 0.00 | 83 | 1009.9 |
| 20260506091506 | 58 | 115 | 0.9 | 6.1 | 0.00 | 0.00 | 0.00 | 82 | 1009.8 |
| 20260506090035 | 58 | 210 | 0.0 | 3.5 | 0.00 | 0.00 | 0.00 | 82 | 1009.9 |
| 20260506084514 | 58 | 109 | 0.9 | 2.6 | 0.00 | 0.00 | 0.00 | 81 | 1009.9 |
| 20260506083034 | 58 | 110 | 0.9 | 3.5 | 0.00 | 0.00 | 0.00 | 81 | 1010.0 |
| 20260506081524 | 59 | 72 | 0.9 | 3.5 | 0.00 | 0.00 | 0.00 | 80 | 1009.9 |
| 20260506073018 | 59 | 127 | 0.0 | 0.9 | 0.00 | 0.00 | 0.00 | 79 | 1009.9 |
| 20260506071522 | 59 | 84 | 0.9 | 1.7 | 0.00 | 0.00 | 0.00 | 78 | 1010.0 |
| 20260506061516 | 61 | 116 | 0.0 | 3.5 | 0.00 | 0.00 | 0.00 | 72 | 1009.7 |
| 20260506044532 | 62 | 269 | 1.7 | 3.5 | 0.00 | 0.00 | 0.00 | 68 | 1009.9 |
| 20260506043027 | 62 | 212 | 1.7 | 6.1 | 0.00 | 0.00 | 0.00 | 68 | 1009.9 |
| 20260506041527 | 62 | 200 | 0.0 | 3.5 | 0.00 | 0.00 | 0.00 | 67 | 1010.0 |
| 20260506040020 | 62 | 71 | 0.0 | 6.1 | 0.00 | 0.00 | 0.00 | 67 | 1010.0 |
| 20260506034530 | 63 | 117 | 0.9 | 4.3 | 0.00 | 0.00 | 0.00 | 65 | 1010.0 |
| 20260506033028 | 63 | 105 | 1.7 | 3.5 | 0.00 | 0.00 | 0.00 | 65 | 1010.0 |
| 20260506031526 | 63 | 86 | 0.9 | 5.2 | 0.00 | 0.00 | 0.00 | 64 | 1009.8 |
| 20260506030028 | 63 | 79 | 0.9 | 2.6 | 0.00 | 0.00 | 0.00 | 63 | 1010.1 |
| 20260506024527 | 64 | 117 | 1.7 | 5.2 | 0.00 | 0.00 | 0.00 | 62 | 1010.1 |
| 20260506023020 | 65 | 170 | 0.9 | 6.1 | 0.00 | 0.00 | 0.00 | 61 | 1009.9 |
| 20260506021507 | 65 | 74 | 0.9 | 5.2 | 0.00 | 0.00 | 0.00 | 61 | 1009.7 |
| 20260506020010 | 65 | 121 | 1.7 | 3.5 | 0.00 | 0.00 | 0.00 | 60 | 1009.5 |
| 20260506014522 | 66 | 66 | 0.9 | 6.1 | 0.00 | 0.00 | 0.00 | 60 | 1009.5 |
| 20260506013021 | 67 | 4 | 0.0 | 4.3 | 0.00 | 0.00 | 0.00 | 59 | 1009.4 |
| 20260506011511 | 67 | 110 | 1.7 | 7.8 | 0.00 | 0.00 | 0.00 | 58 | 1009.4 |
| 20260506010029 | 68 | 99 | 2.6 | 9.6 | 0.00 | 0.00 | 0.00 | 57 | 1009.1 |
| 20260506004509 | 69 | 265 | 4.3 | 8.7 | 0.00 | 0.00 | 0.00 | 55 | 1009.3 |
| 20260506003015 | 69 | 210 | 1.7 | 9.6 | 0.00 | 0.00 | 0.00 | 55 | 1009.0 |
| 20260506001519 | 70 | 250 | 2.6 | 13.0 | 0.00 | 0.00 | 0.00 | 53 | 1008.5 |
| 20260506000023 | 70 | 211 | 3.5 | 14.8 | 0.00 | 0.00 | 0.00 | 52 | 1008.1 |
| 20260505234535 | 71 | 160 | 2.6 | 11.3 | 0.00 | 0.00 | 0.00 | 51 | 1007.8 |
| 20260505233010 | 72 | 160 | 1.7 | 12.2 | 0.00 | 0.00 | 0.00 | 50 | 1007.5 |
| 20260505231523 | 72 | 197 | 1.7 | 11.3 | 0.00 | 0.00 | 0.00 | 49 | 1007.1 |
| 20260505230003 | 73 | 160 | 1.7 | 13.9 | 0.00 | 0.00 | 0.00 | 48 | 1007.1 |
| 20260505224506 | 74 | 86 | 3.5 | 12.2 | 0.00 | 0.00 | 0.00 | 48 | 1007.0 |
| 20260505223009 | 76 | 127 | 3.5 | 15.6 | 0.00 | 0.00 | 0.00 | 45 | 1006.8 |
| 20260505221510 | 77 | 319 | 7.0 | 18.2 | 0.00 | 0.00 | 0.00 | 44 | 1006.6 |
| 20260505220016 | 77 | 242 | 5.2 | 17.4 | 0.00 | 0.00 | 0.00 | 43 | 1006.4 |
| 20260505214503 | 78 | 167 | 5.2 | 15.6 | 0.00 | 0.00 | 0.00 | 42 | 1006.2 |